Flag for Mexico Weather past 2 weeks in Merida, Yucatán, Mexico

Now
73 °F

Clear.


Feels Like: 74 °F
Forecast: 71 / 95 °F
Wind: 12 mph from East

Location: Aerop. Internacional Merida - Yuc

Current Time: Apr 2, 2015 at 3:45:36 AM

Latest Report: Apr 2, 2015 at 2:46 AM


Visibility: 7 mi

Pressure: 29.96 "Hg

Humidity: 78%

Dew point: 66 °F

Location of MeridaLocation

Historic Weather in Merida — Graph

°F

Merida temperature yesterday

Maximum temperature yesterday: 97 °F (at 3:46 PM)
Minimum temperature yesterday: 68 °F (at 3:50 AM)
Average temperature yesterday: 79 °F

Past Weeks' High & Low Weather Summary

 TemperatureHumidityPressure
High99 °F (Mar 26, 2:52 PM)94% (Mar 25, 5:49 AM)30.20 "Hg (Mar 25, 5:49 AM)
Low68 °F (Apr 1, 3:50 AM)20% (Mar 31, 2:46 PM)29.79 "Hg (Mar 26, 2:52 PM)
Average80 °F64%30.01 "Hg
* Reported Mar 18 2:50 AM — Apr 2 2:46 AM, Merida, Weather by CustomWeather, © 2015

Note: Actual official high and low records may vary slightly from our data, if they occured in-between our weather recording intervals... More about our weather records

Advertising

Merida weather history for previous 24 hours

 ConditionsComfort  
Time TempWeatherWind HumidityBarometerVisibility
2:46 AM
Thu, Apr 2
73 °FClear.12 mph78%29.96 "Hg7 mi
1:45 AM75 °FClear.7 mph74%29.97 "Hg7 mi
12:44 AM77 °FClear.9 mph69%29.99 "Hg7 mi
11:40 PM
Wed, Apr 1
77 °FClear.12 mph69%29.99 "Hg7 mi
10:43 PM79 °FClear.21 mph65%30.00 "Hg7 mi
8:45 PM82 °FClear.14 mph51%30.00 "Hg7 mi
6:48 PM86 °FClear.7 mph46%29.91 "Hg6 mi
3:46 PM97 °FScattered clouds.7 mph20%29.87 "Hg7 mi
1:45 PM95 °FPassing clouds.7 mph23%29.92 "Hg7 mi
12:48 PM93 °FSunny.12 mph23%29.95 "Hg7 mi
11:47 AM90 °FSunny.9 mph31%29.98 "Hg7 mi
10:48 AM86 °FPassing clouds.12 mph38%30.01 "Hg7 mi
9:47 AM84 °FPartly sunny.16 mph43%30.03 "Hg7 mi
8:43 AM79 °FPartly sunny.13 mph54%30.06 "Hg7 mi
7:45 AM73 °FPartly sunny.12 mph65%30.03 "Hg7 mi
6:45 AM70 °FPartly sunny.12 mph73%30.02 "Hg7 mi
5:46 AM68 °FPassing clouds.6 mph78%29.95 "Hg7 mi
4:51 AM68 °FClear.9 mph73%30.00 "Hg7 mi
3:50 AM68 °FClear.9 mph73%30.00 "Hg7 mi
Weather by CustomWeather, © 2015

See weather overviewHow to use our weather pages